Regional Weather Roundup
Issued by NWS Lake Charles, LA

Home | Current Version | Previous Version | Text Only | Print | Product List | Glossary On
Versions: 1 2 3 4 5 6 7 8 9 10 11 12 13 14 15 16 17 18 19 20 21 22 23 24 25 26 27 28 29 30 31 32 33 34 35 36 37 38 39 40 41 42 43 44 45 46 47 48 49 50
000
ASUS44 KLCH 200910
RWRLCH
RWRLCH
REGIONAL WEATHER ROUNDUP
NATIONAL WEATHER SERVICE LAKE CHARLES LA
400 AM CDT WED AUG 20 2014

Note: "fair" indicates few or no clouds below 12,000 feet with no
significant weather and/or obstructions to visibility.


ACROSS SOUTHEAST TEXAS

CITY           SKY/WX    TMP DP  RH WIND       PRES   REMARKS
BEAUMONT       CLEAR     78  74  87 S6        29.94S
BEAUMONT CITY    N/A     74  74 100 CALM      29.95S FOG
ORANGE         SUNNY     78  78 100 CALM      29.96S FOG
JASPER         PTCLDY    70  68  95 CALM      29.99R
$$

ACROSS CENTRAL LOUISIANA

CITY           SKY/WX    TMP DP  RH WIND       PRES   REMARKS
LEESVILLE      MOCLDY    73  70  90 S3        29.97R
FULLERTON        N/A     73  70  90 CALM      29.95R
ALEXANDRIA INT MOCLDY    72  70  93 SE5       29.95R
ESLER FIELD    MOCLDY    75  72  90 CALM      29.97R
DERIDDER         N/A     72  71  96 CALM      29.99R FOG
OAKDALE        MOSUNNY   70  69  95 CALM      29.97R
OPELOUSAS        N/A    N/A N/A N/A CALM      29.97R
$$

ACROSS SOUTHWEST AND SOUTH CENTRAL LOUISIANA

CITY           SKY/WX    TMP DP  RH WIND       PRES   REMARKS
SULPHUR        MOSUNNY   77  76  96 CALM      29.96S
LAKE CHARLES   CLEAR     74  73  97 SE5       29.96R
CHENNAULT INT  CLEAR     74  74 100 CALM      29.97S
CAMERON PHI    SUNNY     84  75  74 S12       29.96S
DEQUINCY         N/A     71  71  99 CALM      29.96S
JENNINGS         N/A     73  72  98 CALM      29.96S
LAFAYETTE      PTCLDY    76  73  91 S5        29.97R
NEW IBERIA     PTCLDY    73  71  93 SE3       29.97S FOG
ABBEVILLE        N/A     72  72 100 CALM      29.97R
PATTERSON      CLEAR    N/A N/A N/A MISG        N/A
SALT POINT       N/A     85  77  77 VRB3      29.96S
$$

SELECTED SITES ACROSS THE REGION

CITY           SKY/WX    TMP DP  RH WIND       PRES   REMARKS
HOUSTON BUSH   PTCLDY    75  74  96 SE3       29.94S
HOUSTON HOBBY  PTCLDY    78  74  87 CALM      29.93S
GALVESTON      PTCLDY    84  77  79 S15       29.94F
COLLEGE STAT   CLOUDY    78  75  90 SE8       29.92F
CONROE         PTCLDY    72  71  97 CALM      29.95S FOG
HUNTSVILLE     PTCLDY    76  73  91 S3        29.94S
LUFKIN         MOCLDY    75  71  87 E5        29.95S
SHREVEPORT     PTCLDY    72  68  87 CALM      29.94S
MONROE         MOCLDY    73  70  90 S5        29.97R
NATCHEZ MS     MOCLDY    73  70  88 CALM      29.99R
BATON ROUGE    CLEAR     73  70  90 CALM      29.97S
N.O. INTL ARPT PTCLDY    78  75  90 S5        29.98S
SLIDELL        CLEAR     75  72  90 N3        29.98R
$$

MARINE REPORTS

STATION/POSITION TIME  TEMP    WIND        PRES    VSBY  WAVE
                       AIR SEA DIR/SP/G                  HT/PER
                 (UTC) (F)     (DEG/KT/KT) (MB)    (MI)  (FT/S)
BUOY 30 S HIGH I NOT AVBL
SEA RIM ST PARK  0800   84     170/ 12/ 16 1014.5F
PORT ARTHUR      0900      87  180/  4/  7 1014.1S
SABINE PASS N    0900   84 87  180/  7/ 11 1014.1R
TEXAS POINT      0900   84 87  170/ 13/ 18 1014.1S
CALCASIEU PASS   0900   85 86  190/ 14/ 16 1015.4S
LK CHARLES BEACH 0900   75 85              1015.2R
MARSH ISLAND     0800   86     180/  9/ 12   N/A
FRESH WATER LOCK 0900   84 87  160/  8/  9 1014.5F
AMERADA PASS     0900   82 86  150/  3/  4 1014.6S
$$


USA.gov is the U.S. government's official web portal to all federal, state and local government web resources and services.